Weather History for Campo, CA

Change the Weather History Date:

Tuesday, January 14, 2014

  Actual Average Record
Temperature  
Mean Temperature 57 °F 49 °F  
Max Temperature 68 °F 63 °F 83 °F (2000)
Min Temperature 46 °F 34 °F 12 °F (2007)
Degree Days  
Heating Degree Days 8 16  
Month to date heating degree days 178 235  
Since 1 July heating degree days 1301 1341  
Cooling Degree Days 0 0  
Month to date cooling degree days 0 0  
Year to date cooling degree days 0 0  
Growing Degree Days 10 (Base 50)    
Moisture  
Dew Point 10 °F    
Average Humidity 14    
Maximum Humidity 19    
Minimum Humidity 9    
Precipitation  
Precipitation 0.00 in 0.10 in 1.70 in (1993)
Month to date precipitation 0.00 1.36  
Year to date precipitation 0.00 1.36  
Since 1 July precipitation 4.19 6.94  
Snow  
Snow 0.00 in - - ()
Month to date snowfall 0.0  
Year to date snowfall 0.0  
Since 1 July snowfall 0.0  
Snow Depth 0.00 in    
Sea Level Pressure  
Sea Level Pressure 30.18 in    
Wind  
Wind Speed 20 mph (NE)    
Max Wind Speed 39 mph    
Max Gust Speed 51 mph    
T = Trace of Precipitation, MM = Missing Value Source: NWS Daily Summary

Daily Weather History Graph

Daily Weather History Graph

Search for Another Location

Airport:

Trip Planner

Search our weather history database for the weather conditions in past years. The results will help you decide how hot, cold, wet, or windy it might be!

Date:

Astronomy

Jan. 14, 2014 Rise Set
Actual Time 6:48 AM PST 5:02 PM PST
Civil Twilight 6:21 AM PST 5:28 PM PST
Nautical Twilight 5:51 AM PST 5:59 PM PST
Astronomical Twilight 5:21 AM PST 6:28 PM PST
Moon 4:09 PM PST (1/14) 5:27 AM PST (1/14)
Length of Visible Light 11h 07m
Length of Day
10h 13m
Waxing Gibbous, 98% of the Moon is Illuminated
Jan 14
Waxing Gibbous
Jan 15
Full
Jan 23
Last Quarter
Jan 30
New
Feb 6
First Quarter

Hourly Weather History & Observations

Time (PST) Temp. Dew Point Humidity Pressure Visibility Wind Dir Wind Speed Gust Speed Precip Events Conditions
12:52 AM 53.1 °F 12.0 °F 20% 30.21 in - Calm Calm - N/A   Unknown
1:52 AM 55.0 °F 12.9 °F 19% 30.20 in - NE 13.8 mph 20.7 mph N/A   Unknown
2:52 AM 60.1 °F 10.9 °F 14% 30.19 in - NNE 17.3 mph - N/A   Unknown
3:52 AM 57.0 °F 12.0 °F 17% 30.19 in - ENE 10.4 mph - N/A   Unknown
4:52 AM 55.9 °F 10.9 °F 17% 30.21 in - NE 10.4 mph - N/A   Unknown
5:52 AM 57.9 °F 10.9 °F 16% 30.21 in - NE 18.4 mph 23.0 mph N/A   Unknown
6:52 AM 57.0 °F 12.0 °F 17% 30.23 in - ENE 23.0 mph - N/A   Unknown
7:52 AM 59.0 °F 12.0 °F 16% 30.25 in - ENE 18.4 mph - N/A   Unknown
8:52 AM 64.9 °F 10.0 °F 12% 30.24 in - NE 26.5 mph 40.3 mph N/A   Unknown
9:52 AM 66.9 °F 10.0 °F 11% 30.24 in - NE 34.5 mph 42.6 mph N/A   Unknown
10:52 AM 66.9 °F 10.0 °F 11% 30.21 in - NE 29.9 mph 46.0 mph N/A   Unknown
11:52 AM 66.9 °F 9.0 °F 10% 30.20 in - NE 29.9 mph 43.7 mph N/A   Unknown
12:52 PM 68.0 °F 9.0 °F 10% 30.15 in - NE 29.9 mph 44.9 mph N/A   Unknown
1:52 PM 68.0 °F 9.0 °F 10% 30.15 in - NE 28.8 mph 39.1 mph N/A   Unknown
2:52 PM 66.9 °F 9.0 °F 10% 30.14 in - NE 28.8 mph 35.7 mph N/A   Unknown
3:52 PM 66.0 °F 9.0 °F 11% 30.14 in - NE 29.9 mph 39.1 mph N/A   Unknown
4:52 PM 64.0 °F 9.0 °F 12% 30.16 in - NE 19.6 mph 27.6 mph N/A   Unknown
5:52 PM 60.1 °F 10.0 °F 14% 30.18 in - NE 16.1 mph 21.9 mph N/A   Unknown
6:52 PM 62.1 °F 9.0 °F 12% 30.17 in - NNE 16.1 mph 25.3 mph N/A   Unknown
7:52 PM 62.1 °F 7.0 °F 11% 30.17 in - North 8.1 mph - N/A   Unknown
8:52 PM 62.1 °F 7.0 °F 11% 30.17 in - North 6.9 mph - N/A   Unknown
9:52 PM 63.0 °F 7.0 °F 11% 30.15 in - North 12.7 mph 25.3 mph N/A   Unknown
10:52 PM 62.1 °F 8.1 °F 12% 30.13 in - NNE 24.2 mph 34.5 mph N/A   Unknown
11:52 PM 62.1 °F 8.1 °F 12% 30.14 in - NE 15.0 mph 33.4 mph N/A   Unknown